Lid_Strength_Index
-1 -0 -0 0 1 1 1 1 1 1 1 1 1 1 0 0 1 0 2 1 0 -2 -0 0 1 1 2 3 3 3 6 8 8 7 7 4 5 4 3 4 3 3 3 2 1
-0 -0 -0 0 1 1 1 1 1 1 1 1 1 1 -0 -0 1 2 0 -3 -3 -2 1 2 2 2 3 4 3 5 6 7 5 5 5 5 5 4 4 4 4 4 2 2 1
-0 -0 0 0 1 1 1 1 1 1 1 1 1 -1 -0 -1 3 2 -2 -3 -3 -2 -0 1 1 2 4 3 4 5 7 5 5 4 4 5 5 4 5 5 4 4 3 2 2
0 0 0 1 1 1 1 1 1 2 1 0 -0 -1 -1 0 7 1 -2 -3 -4 -1 0 1 2 4 5 5 4 6 5 5 5 4 4 5 4 5 4 4 3 3 2 2 3
1 1 1 1 1 1 1 2 2 1 1 0 -0 -1 1 3 3 -1 -2 -2 -1 -0 1 2 3 4 6 5 4 5 5 4 4 4 4 4 5 5 4 3 3 2 2 3 3
2 2 1 1 1 2 2 2 1 1 0 -0 -0 -0 2 5 -0 -1 -0 -0 0 1 2 2 3 3 4 4 5 4 4 5 4 4 4 5 5 4 4 3 3 3 3 2 2
1 2 2 2 2 2 1 1 0 0 0 -0 -1 -0 2 3 -0 -1 -0 0 -0 1 2 1 2 3 3 5 4 4 6 5 5 4 5 4 6 6 4 3 3 3 3 2 2
2 2 2 2 2 1 0 1 1 0 0 -0 0 0 4 -0 -1 -0 -0 0 -0 0 1 1 1 3 3 3 4 6 6 8 6 5 5 5 8 5 3 4 4 3 3 3 2
1 0 0 1 1 1 1 1 1 1 0 0 1 2 4 1 1 1 0 2 1 1 1 1 2 3 4 6 7 6 9 8 7 5 5 6 7 5 4 4 4 4 3 3 3
1 1 1 1 1 1 1 1 1 1 -0 -1 0 3 2 3 2 1 0 1 2 2 3 3 3 5 5 6 10 9 9 8 8 6 6 6 7 5 4 4 4 4 3 3 3
1 1 1 1 1 1 1 0 2 3 1 4 3 4 3 1 0 2 1 2 2 3 6 4 6 7 7 6 7 7 8 9 7 6 7 7 7 6 5 4 5 4 4 3 3
1 1 1 1 1 1 -0 2 2 1 4 2 2 2 2 1 4 2 1 4 4 6 5 6 7 6 6 6 7 7 8 8 7 6 7 7 7 6 5 5 4 4 4 4 3
2 1 2 2 1 0 1 2 -1 0 4 4 3 3 3 2 4 4 2 3 5 6 6 7 7 5 6 7 8 8 8 9 9 7 6 7 8 7 5 4 4 4 3 3 3
1 1 2 3 2 0 2 -0 -1 -0 7 6 5 3 3 3 5 2 2 3 5 7 6 7 5 7 7 8 7 9 7 7 8 9 11 7 11 8 7 6 5 4 4 3 3
1 1 2 2 0 1 1 -1 -1 1 13 6 5 1 3 4 4 4 2 3 6 6 6 8 7 7 8 8 7 8 7 7 8 9 9 9 10 9 7 7 6 5 4 4 3
1 2 2 -0 -1 -0 -1 -1 1 9 14 7 5 5 5 5 5 4 4 3 3 6 6 6 5 6 7 6 6 6 7 8 8 9 13 10 10 10 8 8 6 5 4 4 3
1 2 2 -1 2 -1 -1 2 8 12 6 8 7 6 6 7 6 6 6 7 8 10 10 7 7 6 5 7 6 7 9 13 15 14 14 10 10 10 7 6 6 6 5 4 3
1 2 1 -1 -2 -1 1 5 12 9 8 6 6 6 8 6 7 7 7 8 6 7 8 10 12 7 6 7 9 8 9 14 17 16 13 10 12 10 6 5 5 4 4 4 3
2 -1 -0 -1 -2 -1 4 10 9 8 6 7 6 8 8 7 7 7 8 8 7 6 10 10 11 6 6 6 7 9 11 8 13 13 15 11 9 7 6 6 5 5 5 4 4
0 1 1 -1 -2 1 6 9 8 6 6 6 9 8 9 8 8 8 9 7 8 6 5 8 12 7 7 6 6 8 7 12 11 18 17 12 11 10 9 8 6 6 5 4 4
1 3 1 -2 -0 4 9 8 7 5 5 7 8 8 8 9 8 9 9 7 6 7 5 6 9 9 7 9 9 9 9 10 9 11 15 15 12 7 7 6 6 6 5 4 4
2 6 -0 -1 5 5 8 6 6 6 5 6 6 7 8 8 9 9 9 8 5 6 8 7 8 11 9 7 6 7 9 9 12 13 12 14 13 6 6 6 5 5 4 4 3
3 4 -0 1 9 8 6 6 6 6 6 6 7 6 6 8 10 8 8 6 5 6 8 7 9 12 10 9 7 9 8 8 9 10 13 16 13 6 5 6 5 5 5 4 4
3 8 4 3 3 6 7 7 8 5 6 6 6 6 7 8 7 9 8 7 6 6 6 6 8 10 13 10 8 10 9 8 9 13 13 12 10 7 7 6 6 5 5 4 4
2 6 5 8 7 6 6 6 7 8 6 5 7 7 7 10 9 9 7 7 6 7 6 7 11 9 9 8 8 9 9 9 10 9 12 11 10 8 7 6 6 5 4 5 5
4 5 3 5 5 6 7 7 7 7 6 7 7 6 6 9 7 9 7 7 8 6 7 7 11 10 11 8 9 10 9 9 9 9 9 9 9 6 5 5 5 5 5 5 5
1 1 3 6 6 7 7 7 7 6 6 5 6 6 8 6 5 5 5 5 6 7 8 9 10 11 14 10 11 15 10 9 9 8 8 11 8 6 6 6 6 6 6 5 5